| time (UTC) | temp F | wind direction | speed MPH | gust MPH | rain 1hr in | rain 24hr in | rain mn in | humidity % | barometer mb |
| 20260503235004 | 75 | 286 | 0.0 | 3.0 | 0.00 | 0.00 | 0.00 | 47 | 1018.7 |
| 20260503234512 | 75 | 175 | 2.0 | 7.0 | 0.00 | 0.00 | 0.00 | 45 | 1017.9 |
| 20260503234508 | 75 | 190 | 0.0 | 4.0 | 0.00 | 0.00 | 0.00 | 45 | 1018.8 |
| 20260503234006 | 75 | 165 | 1.0 | 4.0 | 0.00 | 0.00 | 0.00 | 47 | 1018.7 |
| 20260503234003 | 75 | 142 | 2.0 | 4.0 | 0.00 | 0.00 | 0.00 | 47 | 1017.9 |
| 20260503233507 | 75 | 170 | 1.0 | 5.0 | 0.00 | 0.00 | 0.00 | 46 | 1018.8 |
| 20260503233007 | 75 | 197 | 1.0 | 5.0 | 0.00 | 0.00 | 0.00 | 43 | 1018.7 |
| 20260503232507 | 75 | 173 | 2.0 | 11.0 | 0.00 | 0.00 | 0.00 | 43 | 1017.8 |
| 20260503232503 | 75 | 232 | 0.0 | 5.0 | 0.00 | 0.00 | 0.00 | 43 | 1018.6 |
| 20260503232013 | 75 | 259 | 1.0 | 6.0 | 0.00 | 0.00 | 0.00 | 41 | 1018.5 |
| 20260503232006 | 75 | 134 | 2.0 | 13.0 | 0.00 | 0.00 | 0.00 | 41 | 1017.7 |
| 20260503231525 | 76 | 153 | 6.0 | 13.0 | 0.00 | 0.00 | 0.00 | 42 | 1017.7 |
| 20260503231522 | 76 | 149 | 1.0 | 6.0 | 0.00 | 0.00 | 0.00 | 42 | 1018.6 |
| 20260503231005 | 77 | 162 | 0.0 | 6.0 | 0.00 | 0.00 | 0.00 | 40 | 1018.6 |
| 20260503231003 | 77 | 164 | 3.0 | 10.0 | 0.00 | 0.00 | 0.00 | 40 | 1017.9 |
| 20260503230505 | 77 | 201 | 2.0 | 6.0 | 0.00 | 0.00 | 0.00 | 1018.6 | |
| 20260503230503 | 77 | 196 | 6.0 | 11.0 | 0.00 | 0.00 | 0.00 | 1017.7 | |
| 20260503230025 | 78 | 187 | 2.0 | 7.0 | 0.00 | 0.00 | 0.00 | 1018.7 | |
| 20260503230008 | 78 | 181 | 7.0 | 15.0 | 0.00 | 0.00 | 0.00 | 1017.9 | |
| 20260503225505 | 78 | 156 | 5.0 | 15.0 | 0.00 | 0.00 | 0.00 | 1018.1 | |
| 20260503225501 | 78 | 190 | 1.0 | 7.0 | 0.00 | 0.00 | 0.00 | 1018.8 | |
| 20260503225005 | 78 | 197 | 4.0 | 10.0 | 0.00 | 0.00 | 0.00 | 1018.0 | |
| 20260503225002 | 78 | 204 | 1.0 | 5.0 | 0.00 | 0.00 | 0.00 | 1018.8 | |
| 20260503224515 | 79 | 200 | 6.0 | 13.0 | 0.00 | 0.00 | 0.00 | 1018.1 | |
| 20260503224511 | 79 | 192 | 3.0 | 5.0 | 0.00 | 0.00 | 0.00 | 1018.9 | |
| 20260503224005 | 79 | 181 | 1.0 | 6.0 | 0.00 | 0.00 | 0.00 | 41 | 1018.9 |
| 20260503223505 | 79 | 174 | 2.0 | 6.0 | 0.00 | 0.00 | 0.00 | 41 | 1018.9 |
| 20260503223503 | 79 | 165 | 5.0 | 10.0 | 0.00 | 0.00 | 0.00 | 41 | 1018.1 |
| 20260503223018 | 78 | 159 | 5.0 | 10.0 | 0.00 | 0.00 | 0.00 | 40 | 1018.3 |
| 20260503222508 | 79 | 196 | 1.0 | 3.0 | 0.00 | 0.00 | 0.00 | 41 | 1019.1 |
| 20260503222506 | 79 | 167 | 4.0 | 10.0 | 0.00 | 0.00 | 0.00 | 41 | 1018.4 |
| 20260503222010 | 80 | 163 | 1.0 | 7.0 | 0.00 | 0.00 | 0.00 | 42 | 1019.1 |
| 20260503222003 | 80 | 157 | 3.0 | 10.0 | 0.00 | 0.00 | 0.00 | 42 | 1018.3 |
| 20260503221522 | 80 | 182 | 2.0 | 7.0 | 0.00 | 0.00 | 0.00 | 37 | 1019.1 |
| 20260503221515 | 80 | 206 | 6.0 | 10.0 | 0.00 | 0.00 | 0.00 | 37 | 1018.4 |
| 20260503221009 | 80 | 158 | 1.0 | 5.0 | 0.00 | 0.00 | 0.00 | 40 | 1019.2 |
| 20260503220512 | 80 | 171 | 6.0 | 12.0 | 0.00 | 0.00 | 0.00 | 38 | 1018.6 |
| 20260503220510 | 80 | 169 | 2.0 | 5.0 | 0.00 | 0.00 | 0.00 | 38 | 1019.2 |
| 20260503220028 | 80 | 144 | 4.0 | 8.0 | 0.00 | 0.00 | 0.00 | 41 | 1018.6 |
| 20260503220012 | 80 | 177 | 1.0 | 5.0 | 0.00 | 0.00 | 0.00 | 41 | 1019.3 |
| 20260503215510 | 80 | 202 | 5.0 | 8.0 | 0.00 | 0.00 | 0.00 | 36 | 1018.7 |
| 20260503215506 | 80 | 240 | 2.0 | 5.0 | 0.00 | 0.00 | 0.00 | 36 | 1019.4 |
| 20260503215008 | 80 | 235 | 1.0 | 5.0 | 0.00 | 0.00 | 0.00 | 37 | 1019.5 |
| 20260503215002 | 80 | 200 | 3.0 | 10.0 | 0.00 | 0.00 | 0.00 | 37 | 1018.9 |
| 20260503214511 | 78 | 135 | 2.0 | 10.0 | 0.00 | 0.00 | 0.00 | 40 | 1019.0 |
| 20260503214508 | 78 | 171 | 1.0 | 5.0 | 0.00 | 0.00 | 0.00 | 40 | 1019.6 |
| 20260503214008 | 79 | 173 | 1.0 | 5.0 | 0.00 | 0.00 | 0.00 | 43 | 1019.6 |
| 20260503214003 | 79 | 159 | 3.0 | 10.0 | 0.00 | 0.00 | 0.00 | 43 | 1019.1 |
| 20260503213507 | 79 | 136 | 2.0 | 11.0 | 0.00 | 0.00 | 0.00 | 39 | 1019.0 |
| 20260503213026 | 79 | 123 | 2.0 | 4.0 | 0.00 | 0.00 | 0.00 | 41 | 1019.7 |
| 20260503213017 | 79 | 167 | 3.0 | 11.0 | 0.00 | 0.00 | 0.00 | 41 | 1019.1 |
| 20260503212504 | 79 | 211 | 5.0 | 11.0 | 0.00 | 0.00 | 0.00 | 39 | 1019.3 |
| 20260503212010 | 81 | 172 | 8.0 | 11.0 | 0.00 | 0.00 | 0.00 | 38 | 1019.4 |
| 20260503212006 | 81 | 107 | 1.0 | 5.0 | 0.00 | 0.00 | 0.00 | 38 | 1020.1 |
| 20260503211522 | 81 | 200 | 3.0 | 12.0 | 0.00 | 0.00 | 0.00 | 38 | 1019.5 |
| 20260503211520 | 81 | 242 | 1.0 | 4.0 | 0.00 | 0.00 | 0.00 | 38 | 1020.2 |
| 20260503211011 | 81 | 190 | 1.0 | 5.0 | 0.00 | 0.00 | 0.00 | 39 | 1020.2 |
| 20260503211003 | 81 | 182 | 6.0 | 12.0 | 0.00 | 0.00 | 0.00 | 39 | 1019.6 |
| 20260503210507 | 80 | 144 | 2.0 | 12.0 | 0.00 | 0.00 | 0.00 | 36 | 1019.5 |
| 20260503210505 | 80 | 149 | 1.0 | 7.0 | 0.00 | 0.00 | 0.00 | 36 | 1020.1 |
| 20260503210021 | 81 | 133 | 3.0 | 11.0 | 0.00 | 0.00 | 0.00 | 37 | 1019.6 |
| 20260503205509 | 81 | 155 | 1.0 | 3.0 | 0.00 | 0.00 | 0.00 | 37 | 1020.2 |
| 20260503205507 | 81 | 143 | 3.0 | 7.0 | 0.00 | 0.00 | 0.00 | 37 | 1019.6 |
| 20260503205010 | 80 | 196 | 1.0 | 5.0 | 0.00 | 0.00 | 0.00 | 36 | 1020.3 |
| 20260503205004 | 80 | 211 | 4.0 | 8.0 | 0.00 | 0.00 | 0.00 | 36 | 1019.7 |
| 20260503204524 | 80 | 210 | 1.0 | 5.0 | 0.00 | 0.00 | 0.00 | 40 | 1020.4 |
| 20260503204522 | 80 | 174 | 4.0 | 10.0 | 0.00 | 0.00 | 0.00 | 40 | 1019.8 |
| 20260503204011 | 81 | 78 | 1.0 | 4.0 | 0.00 | 0.00 | 0.00 | 39 | 1020.5 |
| 20260503204004 | 81 | 136 | 6.0 | 10.0 | 0.00 | 0.00 | 0.00 | 39 | 1019.9 |
| 20260503203505 | 81 | 5 | 1.0 | 9.0 | 0.00 | 0.00 | 0.00 | 38 | 1020.1 |
| 20260503203502 | 81 | 104 | 2.0 | 5.0 | 0.00 | 0.00 | 0.00 | 38 | 1020.7 |
| 20260503203012 | 80 | 144 | 2.0 | 5.0 | 0.00 | 0.00 | 0.00 | 40 | 1020.7 |
| 20260503203010 | 80 | 185 | 2.0 | 9.0 | 0.00 | 0.00 | 0.00 | 40 | 1020.0 |
| 20260503202509 | 80 | 234 | 2.0 | 7.0 | 0.00 | 0.00 | 0.00 | 34 | 1020.7 |
| 20260503202506 | 80 | 207 | 3.0 | 8.0 | 0.00 | 0.00 | 0.00 | 34 | 1020.0 |
| 20260503202008 | 81 | 155 | 2.0 | 7.0 | 0.00 | 0.00 | 0.00 | 38 | 1020.8 |
| 20260503201524 | 81 | 146 | 2.0 | 6.0 | 0.00 | 0.00 | 0.00 | 40 | 1020.8 |
| 20260503201513 | 81 | 215 | 7.0 | 9.0 | 0.00 | 0.00 | 0.00 | 40 | 1020.2 |
| 20260503201008 | 81 | 182 | 2.0 | 6.0 | 0.00 | 0.00 | 0.00 | 40 | 1021.0 |
| 20260503200509 | 81 | 147 | 3.0 | 11.0 | 0.00 | 0.00 | 0.00 | 40 | 1020.4 |
| 20260503200507 | 81 | 159 | 2.0 | 5.0 | 0.00 | 0.00 | 0.00 | 40 | 1021.0 |
| 20260503200030 | 81 | 184 | 1.0 | 6.0 | 0.00 | 0.00 | 0.00 | 40 | 1021.1 |
| 20260503200024 | 81 | 180 | 6.0 | 11.0 | 0.00 | 0.00 | 0.00 | 40 | 1020.5 |
| 20260503195508 | 80 | 134 | 3.0 | 11.0 | 0.00 | 0.00 | 0.00 | 1020.4 | |
| 20260503195506 | 80 | 198 | 2.0 | 6.0 | 0.00 | 0.00 | 0.00 | 1021.1 | |
| 20260503195012 | 80 | 36 | 2.0 | 5.0 | 0.00 | 0.00 | 0.00 | 1021.3 | |
| 20260503194529 | 81 | 122 | 1.0 | 4.0 | 0.00 | 0.00 | 0.00 | 1021.4 | |
| 20260503194525 | 81 | 80 | 3.0 | 10.0 | 0.00 | 0.00 | 0.00 | 1020.6 | |
| 20260503194010 | 81 | 191 | 1.0 | 6.0 | 0.00 | 0.00 | 0.00 | 1021.5 | |
| 20260503194005 | 81 | 163 | 4.0 | 12.0 | 0.00 | 0.00 | 0.00 | 1020.7 | |
| 20260503193508 | 81 | 90 | 2.0 | 12.0 | 0.00 | 0.00 | 0.00 | 38 | 1020.7 |
| 20260503193506 | 81 | 57 | 1.0 | 6.0 | 0.00 | 0.00 | 0.00 | 38 | 1021.5 |
| 20260503193022 | 80 | 217 | 1.0 | 6.0 | 0.00 | 0.00 | 0.00 | 38 | 1021.5 |
| 20260503193013 | 80 | 176 | 3.0 | 14.0 | 0.00 | 0.00 | 0.00 | 38 | 1020.9 |
| 20260503192505 | 81 | 151 | 4.0 | 14.0 | 0.00 | 0.00 | 0.00 | 40 | 1021.0 |
| 20260503192503 | 81 | 130 | 1.0 | 6.0 | 0.00 | 0.00 | 0.00 | 40 | 1021.7 |
| 20260503192010 | 80 | 267 | 2.0 | 6.0 | 0.00 | 0.00 | 0.00 | 38 | 1021.7 |
| 20260503192004 | 80 | 148 | 5.0 | 11.0 | 0.00 | 0.00 | 0.00 | 38 | 1021.1 |
| 20260503191528 | 81 | 128 | 3.0 | 10.0 | 0.00 | 0.00 | 0.00 | 41 | 1021.2 |
| 20260503191520 | 81 | 180 | 1.0 | 6.0 | 0.00 | 0.00 | 0.00 | 41 | 1021.8 |
| 20260503191007 | 80 | 146 | 2.0 | 6.0 | 0.00 | 0.00 | 0.00 | 38 | 1021.9 |
| 20260503191004 | 80 | 352 | 4.0 | 10.0 | 0.00 | 0.00 | 0.00 | 38 | 1021.3 |
| 20260503190507 | 80 | 156 | 1.0 | 5.0 | 0.00 | 0.00 | 0.00 | 42 | 1021.9 |
| 20260503190504 | 80 | 175 | 4.0 | 9.0 | 0.00 | 0.00 | 0.00 | 42 | 1021.4 |
| 20260503190023 | 80 | 192 | 1.0 | 6.0 | 0.00 | 0.00 | 0.00 | 39 | 1022.0 |
| 20260503190017 | 80 | 160 | 4.0 | 9.0 | 0.00 | 0.00 | 0.00 | 39 | 1021.4 |
| 20260503185507 | 79 | 201 | 4.0 | 10.0 | 0.00 | 0.00 | 0.00 | 38 | 1021.4 |
| 20260503185006 | 80 | 101 | 2.0 | 5.0 | 0.00 | 0.00 | 0.00 | 1022.1 | |
| 20260503184521 | 79 | 186 | 2.0 | 4.0 | 0.00 | 0.00 | 0.00 | 38 | 1022.2 |
| 20260503184518 | 79 | 145 | 3.0 | 9.0 | 0.00 | 0.00 | 0.00 | 38 | 1021.5 |
| 20260503184010 | 80 | 158 | 4.0 | 8.0 | 0.00 | 0.00 | 0.00 | 38 | 1021.7 |
| 20260503184007 | 80 | 168 | 1.0 | 4.0 | 0.00 | 0.00 | 0.00 | 38 | 1022.2 |
| 20260503183517 | 79 | 183 | 1.0 | 5.0 | 0.00 | 0.00 | 0.00 | 39 | 1022.3 |
| 20260503183514 | 79 | 130 | 1.0 | 8.0 | 0.00 | 0.00 | 0.00 | 41 | 1021.7 |
| 20260503183025 | 80 | 135 | 2.0 | 5.0 | 0.00 | 0.00 | 0.00 | 36 | 1022.4 |
| 20260503183014 | 80 | 110 | 3.0 | 8.0 | 0.00 | 0.00 | 0.00 | 36 | 1021.9 |
| 20260503182507 | 79 | 202 | 1.0 | 6.0 | 0.00 | 0.00 | 0.00 | 38 | 1022.4 |
| 20260503182011 | 79 | 215 | 1.0 | 6.0 | 0.00 | 0.00 | 0.00 | 35 | 1022.6 |
| 20260503181525 | 80 | 119 | 1.0 | 4.0 | 0.00 | 0.00 | 0.00 | 39 | 1022.8 |
| 20260503181514 | 80 | 171 | 3.0 | 9.0 | 0.00 | 0.00 | 0.00 | 39 | 1022.2 |
| 20260503181005 | 79 | 146 | 1.0 | 13.0 | 0.00 | 0.00 | 0.00 | 39 | 1022.3 |
| 20260503180507 | 79 | 185 | 3.0 | 5.0 | 0.00 | 0.00 | 0.00 | 42 | 1022.9 |
| 20260503180021 | 79 | 152 | 3.0 | 9.0 | 0.00 | 0.00 | 0.00 | 41 | 1022.3 |
| 20260503180017 | 79 | 169 | 2.0 | 5.0 | 0.00 | 0.00 | 0.00 | 41 | 1023.0 |
| 20260503175507 | 80 | 103 | 2.0 | 5.0 | 0.00 | 0.00 | 0.00 | 46 | 1023.1 |
| 20260503175502 | 80 | 215 | 5.0 | 9.0 | 0.00 | 0.00 | 0.00 | 42 | 1022.4 |
| 20260503175010 | 79 | 62 | 1.0 | 4.0 | 0.00 | 0.00 | 0.00 | 40 | 1023.1 |
| 20260503175002 | 79 | 127 | 1.0 | 7.0 | 0.00 | 0.00 | 0.00 | 40 | 1022.4 |
| 20260503174524 | 79 | 84 | 1.0 | 7.0 | 0.00 | 0.00 | 0.00 | 48 | 1023.1 |
| 20260503174505 | 79 | 182 | 3.0 | 10.0 | 0.00 | 0.00 | 0.00 | 48 | 1022.5 |
| 20260503174006 | 78 | 210 | 1.0 | 7.0 | 0.00 | 0.00 | 0.00 | 42 | 1023.2 |
| 20260503173508 | 79 | 152 | 1.0 | 4.0 | 0.00 | 0.00 | 0.00 | 44 | 1023.4 |
| 20260503173503 | 79 | 156 | 5.0 | 10.0 | 0.00 | 0.00 | 0.00 | 44 | 1022.8 |
| 20260503173042 | 78 | 161 | 1.0 | 4.0 | 0.00 | 0.00 | 0.00 | 43 | 1023.4 |
| 20260503173002 | 78 | 81 | 2.0 | 8.0 | 0.00 | 0.00 | 0.00 | 43 | 1022.8 |
| 20260503172511 | 78 | 163 | 2.0 | 4.0 | 0.00 | 0.00 | 0.00 | 43 | 1023.6 |
| 20260503172505 | 78 | 148 | 3.0 | 8.0 | 0.00 | 0.00 | 0.00 | 43 | 1022.8 |
| 20260503172006 | 78 | 216 | 2.0 | 12.0 | 0.00 | 0.00 | 0.00 | 43 | 1023.0 |
| 20260503172003 | 78 | 111 | 1.0 | 4.0 | 0.00 | 0.00 | 0.00 | 43 | 1023.7 |
| 20260503171520 | 78 | 117 | 1.0 | 7.0 | 0.00 | 0.00 | 0.00 | 45 | 1023.9 |
| 20260503171503 | 78 | 144 | 2.0 | 12.0 | 0.00 | 0.00 | 0.00 | 45 | 1023.0 |
| 20260503171006 | 77 | 117 | 1.0 | 7.0 | 0.00 | 0.00 | 0.00 | 43 | 1023.9 |
| 20260503171003 | 77 | 86 | 1.0 | 9.0 | 0.00 | 0.00 | 0.00 | 43 | 1023.0 |
| 20260503170506 | 76 | 192 | 1.0 | 4.0 | 0.00 | 0.00 | 0.00 | 43 | 1023.9 |
| 20260503170503 | 76 | 153 | 4.0 | 10.0 | 0.00 | 0.00 | 0.00 | 43 | 1023.1 |
| 20260503151003 | 71 | 253 | 1.0 | 3.0 | 0.00 | 0.00 | 0.00 | 59 | 1024.3 |
| 20260503150505 | 70 | 223 | 0.0 | 2.0 | 0.00 | 0.00 | 0.00 | 64 | 1024.2 |
| 20260503150503 | 70 | 208 | 3.0 | 5.0 | 0.00 | 0.00 | 0.00 | 64 | 1023.7 |
| 20260503131004 | 53 | 5 | 0.0 | 0.0 | 0.00 | 0.00 | 0.00 | 95 | 1023.9 |
| 20260503130503 | 52 | 5 | 0.0 | 0.0 | 0.00 | 0.00 | 0.00 | 95 | 1023.8 |
| 20260503110510 | 49 | 360 | 1.0 | 2.0 | 0.00 | 0.00 | 0.00 | 94 | 1021.8 |
| 20260503110503 | 49 | 5 | 0.0 | 2.0 | 0.00 | 0.00 | 0.00 | 94 | 1022.5 |
| 20260503090508 | 50 | 360 | 0.0 | 0.0 | 0.00 | 0.00 | 0.00 | 94 | 1021.6 |
| 20260503081518 | 50 | 5 | 0.0 | 0.0 | 0.00 | 0.00 | 0.00 | 93 | 1022.1 |
| 20260503081007 | 50 | 5 | 0.0 | 0.0 | 0.00 | 0.00 | 0.00 | 93 | 1022.1 |
| 20260503081004 | 50 | 360 | 0.0 | 0.0 | 0.00 | 0.00 | 0.00 | 93 | 1021.6 |
| 20260503080506 | 50 | 360 | 0.0 | 0.0 | 0.00 | 0.00 | 0.00 | 93 | 1021.6 |
| 20260503072506 | 50 | 5 | 0.0 | 0.0 | 0.00 | 0.00 | 0.00 | 93 | 1022.3 |
| 20260503072502 | 50 | 360 | 0.0 | 0.0 | 0.00 | 0.00 | 0.00 | 93 | 1021.7 |
| 20260503072004 | 50 | 360 | 0.0 | 0.0 | 0.00 | 0.00 | 0.00 | 93 | 1021.8 |
| 20260503071519 | 51 | 5 | 0.0 | 0.0 | 0.00 | 0.00 | 0.00 | 93 | 1022.5 |
| 20260503071510 | 51 | 360 | 0.0 | 0.0 | 0.00 | 0.00 | 0.00 | 93 | 1021.9 |
| 20260503071004 | 51 | 360 | 0.0 | 0.0 | 0.00 | 0.00 | 0.00 | 93 | 1021.9 |
| 20260503070507 | 51 | 5 | 0.0 | 0.0 | 0.00 | 0.00 | 0.00 | 93 | 1022.6 |
| 20260503070503 | 51 | 360 | 0.0 | 0.0 | 0.00 | 0.00 | 0.00 | 93 | 1021.9 |
| 20260503055006 | 52 | 5 | 0.0 | 0.0 | 0.00 | 0.00 | 0.00 | 92 | 1022.7 |
| 20260503054519 | 52 | 360 | 0.0 | 0.0 | 0.00 | 0.00 | 0.00 | 92 | 1022.0 |
| 20260503054513 | 52 | 5 | 0.0 | 0.0 | 0.00 | 0.00 | 0.00 | 92 | 1022.6 |
| 20260503054013 | 52 | 5 | 0.0 | 0.0 | 0.00 | 0.00 | 0.00 | 92 | 1022.6 |
| 20260503054006 | 52 | 360 | 0.0 | 0.0 | 0.00 | 0.00 | 0.00 | 92 | 1022.0 |
| 20260503053506 | 52 | 360 | 0.0 | 0.0 | 0.00 | 0.00 | 0.00 | 92 | 1022.1 |
| 20260503053026 | 53 | 360 | 0.0 | 0.0 | 0.00 | 0.00 | 0.00 | 92 | 1022.0 |
| 20260503053006 | 53 | 5 | 0.0 | 0.0 | 0.00 | 0.00 | 0.00 | 92 | 1022.8 |
| 20260503052509 | 53 | 360 | 0.0 | 0.0 | 0.00 | 0.00 | 0.00 | 92 | 1022.0 |
| 20260503052505 | 53 | 5 | 0.0 | 0.0 | 0.00 | 0.00 | 0.00 | 92 | 1022.7 |
| 20260503052008 | 53 | 360 | 0.0 | 0.0 | 0.00 | 0.00 | 0.00 | 92 | 1022.1 |
| 20260503052003 | 53 | 5 | 0.0 | 0.0 | 0.00 | 0.00 | 0.00 | 92 | 1022.8 |
| 20260503051526 | 53 | 360 | 0.0 | 0.0 | 0.00 | 0.00 | 0.00 | 92 | 1022.1 |
| 20260503051508 | 53 | 5 | 0.0 | 0.0 | 0.00 | 0.00 | 0.00 | 92 | 1022.8 |
| 20260503051009 | 53 | 360 | 0.0 | 0.0 | 0.00 | 0.00 | 0.00 | 92 | 1022.0 |
| 20260503050506 | 53 | 360 | 0.0 | 0.0 | 0.00 | 0.00 | 0.00 | 92 | 1022.0 |
| 20260503050024 | 53 | 360 | 0.0 | 0.0 | 0.00 | 0.00 | 0.00 | 92 | 1022.1 |
| 20260503050012 | 53 | 5 | 0.0 | 0.0 | 0.00 | 0.00 | 0.00 | 92 | 1022.8 |
| 20260503045510 | 53 | 360 | 0.0 | 0.0 | 0.00 | 0.00 | 0.00 | 92 | 1022.1 |
| 20260503045503 | 53 | 5 | 0.0 | 0.0 | 0.00 | 0.00 | 0.00 | 92 | 1022.8 |
| 20260503045011 | 53 | 360 | 0.0 | 0.0 | 0.00 | 0.00 | 0.00 | 91 | 1022.0 |
| 20260503045005 | 53 | 5 | 0.0 | 0.0 | 0.00 | 0.00 | 0.00 | 91 | 1022.7 |
| 20260503044531 | 54 | 5 | 0.0 | 0.0 | 0.00 | 0.00 | 0.00 | 91 | 1022.8 |
| 20260503044519 | 54 | 360 | 0.0 | 0.0 | 0.00 | 0.00 | 0.00 | 91 | 1022.1 |
| 20260503044007 | 54 | 360 | 0.0 | 0.0 | 0.00 | 0.00 | 0.00 | 92 | 1022.0 |
| 20260503044004 | 54 | 5 | 0.0 | 0.0 | 0.00 | 0.00 | 0.00 | 92 | 1022.7 |
| 20260503043507 | 54 | 360 | 0.0 | 0.0 | 0.00 | 0.00 | 0.00 | 91 | 1022.0 |
| 20260503043504 | 54 | 5 | 0.0 | 0.0 | 0.00 | 0.00 | 0.00 | 91 | 1022.7 |
| 20260503043036 | 54 | 360 | 0.0 | 0.0 | 0.00 | 0.00 | 0.00 | 91 | 1021.9 |
| 20260503043016 | 54 | 5 | 0.0 | 0.0 | 0.00 | 0.00 | 0.00 | 91 | 1022.5 |
| 20260503042513 | 54 | 360 | 0.0 | 0.0 | 0.00 | 0.00 | 0.00 | 91 | 1021.9 |
| 20260503042509 | 54 | 5 | 0.0 | 0.0 | 0.00 | 0.00 | 0.00 | 91 | 1022.6 |
| 20260503042013 | 54 | 360 | 0.0 | 0.0 | 0.00 | 0.00 | 0.00 | 91 | 1022.0 |
| 20260503042003 | 54 | 5 | 0.0 | 0.0 | 0.00 | 0.00 | 0.00 | 91 | 1022.5 |
| 20260503041526 | 54 | 360 | 0.0 | 0.0 | 0.00 | 0.00 | 0.00 | 91 | 1022.0 |
| 20260503041507 | 54 | 5 | 0.0 | 0.0 | 0.00 | 0.00 | 0.00 | 91 | 1022.7 |
| 20260503041007 | 54 | 360 | 0.0 | 0.0 | 0.00 | 0.00 | 0.00 | 91 | 1022.1 |
| 20260503040510 | 54 | 360 | 0.0 | 0.0 | 0.00 | 0.00 | 0.00 | 90 | 1022.1 |
| 20260503040506 | 54 | 5 | 0.0 | 0.0 | 0.00 | 0.00 | 0.00 | 90 | 1022.7 |
| 20260503040028 | 54 | 360 | 0.0 | 0.0 | 0.00 | 0.00 | 0.00 | 90 | 1022.0 |
| 20260503040015 | 54 | 5 | 0.0 | 0.0 | 0.00 | 0.00 | 0.00 | 90 | 1022.7 |
| 20260503035510 | 54 | 360 | 0.0 | 0.0 | 0.00 | 0.00 | 0.00 | 89 | 1022.0 |
| 20260503035504 | 54 | 5 | 0.0 | 0.0 | 0.00 | 0.00 | 0.00 | 89 | 1022.6 |
| 20260503035010 | 54 | 360 | 0.0 | 0.0 | 0.00 | 0.00 | 0.00 | 89 | 1021.9 |
| 20260503035007 | 54 | 5 | 0.0 | 0.0 | 0.00 | 0.00 | 0.00 | 89 | 1022.5 |
| 20260503034528 | 54 | 360 | 0.0 | 0.0 | 0.00 | 0.00 | 0.00 | 88 | 1021.8 |
| 20260503034511 | 54 | 5 | 0.0 | 0.0 | 0.00 | 0.00 | 0.00 | 88 | 1022.4 |
| 20260503034010 | 54 | 360 | 0.0 | 0.0 | 0.00 | 0.00 | 0.00 | 88 | 1021.7 |
| 20260503034007 | 54 | 5 | 0.0 | 0.0 | 0.00 | 0.00 | 0.00 | 88 | 1022.3 |
| 20260503033509 | 54 | 360 | 0.0 | 0.0 | 0.00 | 0.00 | 0.00 | 89 | 1021.7 |
| 20260503033505 | 54 | 5 | 0.0 | 0.0 | 0.00 | 0.00 | 0.00 | 89 | 1022.2 |
| 20260503033032 | 55 | 360 | 0.0 | 0.0 | 0.00 | 0.00 | 0.00 | 89 | 1021.6 |
| 20260503033013 | 54 | 5 | 0.0 | 0.0 | 0.00 | 0.00 | 0.00 | 89 | 1022.2 |
| 20260503032508 | 55 | 360 | 0.0 | 0.0 | 0.00 | 0.00 | 0.00 | 89 | 1021.5 |
| 20260503032505 | 55 | 5 | 0.0 | 0.0 | 0.00 | 0.00 | 0.00 | 89 | 1022.1 |
| 20260503032011 | 55 | 360 | 0.0 | 0.0 | 0.00 | 0.00 | 0.00 | 88 | 1021.5 |
| 20260503031526 | 55 | 360 | 0.0 | 0.0 | 0.00 | 0.00 | 0.00 | 88 | 1021.6 |
| 20260503031007 | 55 | 360 | 0.0 | 0.0 | 0.00 | 0.00 | 0.00 | 86 | 1021.6 |
| 20260503031003 | 55 | 5 | 0.0 | 0.0 | 0.00 | 0.00 | 0.00 | 86 | 1022.2 |
| 20260503030509 | 55 | 360 | 0.0 | 0.0 | 0.00 | 0.00 | 0.00 | 86 | 1021.6 |
| 20260503030503 | 55 | 5 | 0.0 | 0.0 | 0.00 | 0.00 | 0.00 | 86 | 1022.2 |
| 20260503030021 | 56 | 360 | 0.0 | 0.0 | 0.00 | 0.00 | 0.00 | 87 | 1021.5 |
| 20260503030008 | 56 | 5 | 0.0 | 0.0 | 0.00 | 0.00 | 0.00 | 87 | 1022.2 |
| 20260503025505 | 56 | 5 | 0.0 | 0.0 | 0.00 | 0.00 | 0.00 | 86 | 1022.1 |
| 20260503025503 | 56 | 360 | 0.0 | 0.0 | 0.00 | 0.00 | 0.00 | 86 | 1021.5 |
| 20260503025004 | 56 | 360 | 0.0 | 0.0 | 0.00 | 0.00 | 0.00 | 84 | 1021.2 |
| 20260503024521 | 56 | 360 | 0.0 | 0.0 | 0.00 | 0.00 | 0.00 | 84 | 1021.0 |
| 20260503024512 | 56 | 5 | 0.0 | 0.0 | 0.00 | 0.00 | 0.00 | 84 | 1021.7 |
| 20260503024006 | 56 | 5 | 0.0 | 0.0 | 0.00 | 0.00 | 0.00 | 85 | 1021.6 |
| 20260503023508 | 57 | 360 | 0.0 | 0.0 | 0.00 | 0.00 | 0.00 | 84 | 1021.0 |
| 20260503023504 | 57 | 5 | 0.0 | 0.0 | 0.00 | 0.00 | 0.00 | 84 | 1021.6 |
| 20260503023016 | 57 | 5 | 0.0 | 0.0 | 0.00 | 0.00 | 0.00 | 84 | 1021.5 |
| 20260503023010 | 57 | 360 | 0.0 | 0.0 | 0.00 | 0.00 | 0.00 | 84 | 1021.0 |
| 20260503022506 | 57 | 5 | 0.0 | 0.0 | 0.00 | 0.00 | 0.00 | 83 | 1021.4 |
| 20260503022010 | 57 | 5 | 0.0 | 0.0 | 0.00 | 0.00 | 0.00 | 84 | 1021.4 |
| 20260503022004 | 57 | 360 | 0.0 | 0.0 | 0.00 | 0.00 | 0.00 | 84 | 1020.8 |
| 20260503021534 | 57 | 360 | 0.0 | 0.0 | 0.00 | 0.00 | 0.00 | 84 | 1020.8 |
| 20260503021517 | 57 | 5 | 0.0 | 0.0 | 0.00 | 0.00 | 0.00 | 84 | 1021.4 |
| 20260503021011 | 58 | 5 | 0.0 | 0.0 | 0.00 | 0.00 | 0.00 | 84 | 1021.4 |
| 20260503021004 | 58 | 360 | 0.0 | 0.0 | 0.00 | 0.00 | 0.00 | 84 | 1020.8 |
| 20260503020510 | 58 | 5 | 0.0 | 0.0 | 0.00 | 0.00 | 0.00 | 83 | 1021.4 |
| 20260503020506 | 58 | 360 | 0.0 | 0.0 | 0.00 | 0.00 | 0.00 | 83 | 1020.9 |
| 20260503020033 | 58 | 5 | 0.0 | 0.0 | 0.00 | 0.00 | 0.00 | 82 | 1021.3 |
| 20260503020011 | 58 | 360 | 0.0 | 0.0 | 0.00 | 0.00 | 0.00 | 82 | 1020.8 |
| 20260503015508 | 59 | 360 | 0.0 | 0.0 | 0.00 | 0.00 | 0.00 | 81 | 1020.8 |
| 20260503015506 | 59 | 5 | 0.0 | 0.0 | 0.00 | 0.00 | 0.00 | 81 | 1021.3 |
| 20260503015007 | 59 | 5 | 0.0 | 0.0 | 0.00 | 0.00 | 0.00 | 81 | 1021.4 |
| 20260503015004 | 59 | 360 | 0.0 | 0.0 | 0.00 | 0.00 | 0.00 | 81 | 1020.9 |
| 20260503014509 | 59 | 5 | 0.0 | 0.0 | 0.00 | 0.00 | 0.00 | 82 | 1021.4 |
| 20260503014506 | 59 | 360 | 0.0 | 0.0 | 0.00 | 0.00 | 0.00 | 82 | 1020.8 |
| 20260503014004 | 60 | 5 | 0.0 | 0.0 | 0.00 | 0.00 | 0.00 | 80 | 1021.3 |
| 20260503013505 | 60 | 5 | 0.0 | 0.0 | 0.00 | 0.00 | 0.00 | 80 | 1021.1 |
| 20260503013014 | 60 | 5 | 0.0 | 0.0 | 0.00 | 0.00 | 0.00 | 80 | 1021.0 |
| 20260503013012 | 60 | 360 | 0.0 | 0.0 | 0.00 | 0.00 | 0.00 | 80 | 1020.3 |
| 20260503012506 | 61 | 5 | 0.0 | 0.0 | 0.00 | 0.00 | 0.00 | 79 | 1021.0 |
| 20260503012504 | 61 | 360 | 0.0 | 0.0 | 0.00 | 0.00 | 0.00 | 79 | 1020.3 |
| 20260503012010 | 61 | 5 | 0.0 | 0.0 | 0.00 | 0.00 | 0.00 | 79 | 1021.0 |
| 20260503012006 | 61 | 360 | 0.0 | 0.0 | 0.00 | 0.00 | 0.00 | 79 | 1020.4 |
| 20260503011520 | 62 | 5 | 0.0 | 0.0 | 0.00 | 0.00 | 0.00 | 78 | 1021.0 |
| 20260503011516 | 62 | 360 | 0.0 | 0.0 | 0.00 | 0.00 | 0.00 | 78 | 1020.3 |
| 20260503011007 | 62 | 360 | 0.0 | 0.0 | 0.00 | 0.00 | 0.00 | 76 | 1020.3 |
| 20260503010504 | 63 | 5 | 0.0 | 0.0 | 0.00 | 0.00 | 0.00 | 75 | 1020.9 |
| 20260503010017 | 63 | 5 | 0.0 | 0.0 | 0.00 | 0.00 | 0.00 | 75 | 1020.9 |
| 20260503010012 | 63 | 360 | 0.0 | 0.0 | 0.00 | 0.00 | 0.00 | 75 | 1020.2 |
| 20260503005509 | 64 | 5 | 0.0 | 0.0 | 0.00 | 0.00 | 0.00 | 72 | 1020.9 |
| 20260503005504 | 64 | 360 | 0.0 | 0.0 | 0.00 | 0.00 | 0.00 | 72 | 1020.1 |
| 20260503005003 | 64 | 360 | 0.0 | 1.0 | 0.00 | 0.00 | 0.00 | 72 | 1020.2 |
| 20260503004508 | 65 | 5 | 0.0 | 0.0 | 0.00 | 0.00 | 0.00 | 71 | 1020.9 |
| 20260503004506 | 65 | 360 | 0.0 | 2.0 | 0.00 | 0.00 | 0.00 | 71 | 1020.2 |
| 20260503004005 | 66 | 360 | 0.0 | 2.0 | 0.00 | 0.00 | 0.00 | 70 | 1020.1 |
| 20260503004003 | 66 | 5 | 0.0 | 0.0 | 0.00 | 0.00 | 0.00 | 70 | 1020.9 |
| 20260503003506 | 66 | 5 | 0.0 | 2.0 | 0.00 | 0.00 | 0.00 | 66 | 1020.8 |
| 20260503003026 | 67 | 5 | 0.0 | 2.0 | 0.00 | 0.00 | 0.00 | 64 | 1020.8 |
| 20260503003014 | 67 | 360 | 0.0 | 2.0 | 0.00 | 0.00 | 0.00 | 64 | 1020.1 |
| 20260503002506 | 68 | 5 | 0.0 | 2.0 | 0.00 | 0.00 | 0.00 | 58 | 1020.8 |
| 20260503002007 | 69 | 350 | 0.0 | 2.0 | 0.00 | 0.00 | 0.00 | 58 | 1020.8 |
| 20260503002004 | 69 | 55 | 0.0 | 2.0 | 0.00 | 0.00 | 0.00 | 58 | 1020.1 |
| 20260503001510 | 69 | 35 | 0.0 | 2.0 | 0.00 | 0.00 | 0.00 | 58 | 1020.7 |
| 20260503001004 | 69 | 68 | 0.0 | 3.0 | 0.00 | 0.00 | 0.00 | 58 | 1020.2 |
| 20260503000506 | 70 | 332 | 0.0 | 2.0 | 0.00 | 0.00 | 0.00 | 53 | 1020.7 |
| 20260503000503 | 70 | 317 | 1.0 | 3.0 | 0.00 | 0.00 | 0.00 | 53 | 1020.1 |
| 20260503000028 | 70 | 32 | 0.0 | 2.0 | 0.00 | 0.00 | 0.00 | 55 | 1020.7 |
| 20260503000013 | 70 | 104 | 0.0 | 2.0 | 0.00 | 0.00 | 0.00 | 55 | 1020.1 |
| 20260502235505 | 71 | 331 | 0.0 | 3.0 | 0.00 | 0.00 | 0.00 | 52 | 1020.1 |